Weather History for Cairo, IL

Change the Weather History Date:

Wednesday, May 7, 2014

  Actual Average Record
Temperature  
Mean Temperature 78 °F -  
Max Temperature 87 °F 75 °F 90 °F (1986)
Min Temperature 68 °F 56 °F 38 °F (1989)
Cooling Degree Days 12    
Growing Degree Days 28 (Base 50)    
Moisture  
Dew Point 57 °F    
Average Humidity 51    
Maximum Humidity 68    
Minimum Humidity 32    
Precipitation  
Precipitation 0.00 in - - ()
Sea Level Pressure  
Sea Level Pressure 29.90 in    
Wind  
Wind Speed 11 mph (South)    
Max Wind Speed 23 mph    
Max Gust Speed 30 mph    
Visibility 10 miles    
Events      
Averages and records for this station are not official NWS values.
T = Trace of Precipitation, MM = Missing Value Source: NWS Daily Summary

Daily Weather History Graph

Daily Weather History Graph

Search for Another Location

Airport:

Trip Planner

Search our weather history database for the weather conditions in past years. The results will help you decide how hot, cold, wet, or windy it might be!

Date:

Astronomy

May. 07, 2014 Rise Set
Actual Time 5:56 AM CDT 7:51 PM CDT
Civil Twilight 5:27 AM CDT 8:19 PM CDT
Nautical Twilight 4:53 AM CDT 8:54 PM CDT
Astronomical Twilight 4:16 AM CDT 9:31 PM CDT
Moon 1:05 PM CDT (5/7) 1:45 AM CDT (5/7)
Length of Visible Light 14h 52m
Length of Day
13h 55m
First Quarter, 55% of the Moon is Illuminated
May 7
First Quarter
May 14
Full
May 21
Last Quarter
May 28
New
Jun 5
First Quarter

Hourly Weather History & Observations

Time (CDT) Temp. Heat Index Dew Point Humidity Pressure Visibility Wind Dir Wind Speed Gust Speed Precip Events Conditions
12:15 AM 72.7 °F - 52.9 °F 50% 29.84 in 10.0 mi South 10.4 mph - N/A   Clear
12:35 AM 72.5 °F - 53.2 °F 51% 29.84 in 10.0 mi South 9.2 mph - N/A   Clear
12:55 AM 72.0 °F - 53.2 °F 52% 29.84 in 10.0 mi South 6.9 mph - N/A   Clear
1:15 AM 71.6 °F - 53.6 °F 53% 29.84 in 10.0 mi South 6.9 mph - N/A   Clear
1:35 AM 71.6 °F - 54.0 °F 54% 29.84 in 10.0 mi South 9.2 mph - N/A   Clear
1:55 AM 71.2 °F - 54.5 °F 55% 29.84 in 10.0 mi South 9.2 mph - N/A   Clear
2:15 AM 70.9 °F - 55.0 °F 57% 29.84 in 10.0 mi South 8.1 mph - N/A   Clear
2:35 AM 70.3 °F - 55.4 °F 59% 29.84 in 10.0 mi South 9.2 mph - N/A   Clear
3:15 AM 70.2 °F - 55.9 °F 61% 29.84 in 10.0 mi South 9.2 mph - N/A   Clear
3:35 AM 69.8 °F - 55.9 °F 61% 29.85 in 10.0 mi South 8.1 mph - N/A   Clear
3:55 AM 68.9 °F - 56.3 °F 64% 29.85 in 10.0 mi South 8.1 mph - N/A   Clear
4:15 AM 68.9 °F - 56.3 °F 64% 29.85 in 10.0 mi South 6.9 mph - N/A   Clear
4:35 AM 68.5 °F - 56.5 °F 65% 29.85 in 10.0 mi South 8.1 mph - N/A   Clear
4:55 AM 68.5 °F - 56.5 °F 65% 29.85 in 10.0 mi South 9.2 mph - N/A   Clear
5:15 AM 68.4 °F - 56.5 °F 66% 29.86 in 10.0 mi South 8.1 mph - N/A   Clear
5:35 AM 68.2 °F - 56.8 °F 67% 29.87 in 10.0 mi South 9.2 mph - N/A   Clear
5:55 AM 68.0 °F - 56.8 °F 67% 29.87 in 10.0 mi South 9.2 mph - N/A   Clear
6:15 AM 68.0 °F - 57.2 °F 68% 29.88 in 10.0 mi South 8.1 mph - N/A   Clear
6:35 AM 68.0 °F - 57.2 °F 68% 29.90 in 10.0 mi South 9.2 mph - N/A   Clear
6:55 AM 68.5 °F - 57.7 °F 68% 29.90 in 10.0 mi South 6.9 mph - N/A   Clear
7:15 AM 69.1 °F - 58.1 °F 68% 29.91 in 10.0 mi South 8.1 mph - N/A   Clear
7:35 AM 70.3 °F - 58.6 °F 66% 29.92 in 10.0 mi South 9.2 mph - N/A   Clear
7:55 AM 71.6 °F - 59.2 °F 65% 29.93 in 10.0 mi South 9.2 mph - N/A   Clear
8:15 AM 73.2 °F - 59.2 °F 61% 29.93 in 10.0 mi South 12.7 mph 19.6 mph N/A   Clear
8:35 AM 74.1 °F - 59.4 °F 60% 29.93 in 10.0 mi South 13.8 mph 20.7 mph N/A   Clear
8:55 AM 74.7 °F - 59.5 °F 59% 29.93 in 10.0 mi South 17.3 mph 23.0 mph N/A   Clear
9:15 AM 75.2 °F - 59.9 °F 59% 29.93 in 10.0 mi South 12.7 mph - N/A   Clear
9:35 AM 77.2 °F - 60.8 °F 57% 29.93 in 10.0 mi SSW 10.4 mph 17.3 mph N/A   Clear
9:55 AM 77.0 °F - 59.9 °F 55% 29.93 in 10.0 mi SSW 16.1 mph 25.3 mph N/A   Clear
10:15 AM 77.0 °F - 59.4 °F 54% 29.93 in 10.0 mi SSW 15.0 mph 28.8 mph N/A   Clear
10:35 AM 77.9 °F - 59.5 °F 53% 29.94 in 10.0 mi SSW 18.4 mph 25.3 mph N/A   Clear
10:55 AM 78.8 °F - 60.1 °F 53% 29.94 in 10.0 mi South 17.3 mph 26.5 mph N/A   Clear
11:15 AM 79.9 °F - 60.3 °F 51% 29.93 in 10.0 mi South 15.0 mph 25.3 mph N/A   Clear
11:35 AM 80.8 °F 81.3 °F 59.4 °F 48% 29.93 in 10.0 mi South 18.4 mph 25.3 mph N/A   Clear
11:55 AM 81.5 °F 81.8 °F 59.5 °F 47% 29.93 in 10.0 mi South 20.7 mph 27.6 mph N/A   Clear
12:15 PM 82.4 °F 82.5 °F 59.2 °F 45% 29.93 in 10.0 mi South 15.0 mph 25.3 mph N/A   Clear
12:35 PM 82.6 °F 82.6 °F 59.2 °F 45% 29.93 in 10.0 mi South 23.0 mph 29.9 mph N/A   Clear
12:55 PM 83.1 °F 83.0 °F 59.0 °F 44% 29.93 in 10.0 mi South 16.1 mph 28.8 mph N/A   Clear
1:15 PM 83.7 °F 83.4 °F 59.2 °F 43% 29.92 in 10.0 mi South 18.4 mph 25.3 mph N/A   Clear
1:35 PM 83.7 °F 83.3 °F 58.1 °F 42% 29.92 in 10.0 mi South 18.4 mph 26.5 mph N/A   Clear
1:55 PM 84.2 °F 83.5 °F 57.6 °F 40% 29.92 in 10.0 mi South 13.8 mph 26.5 mph N/A   Clear
2:15 PM 85.3 °F 83.9 °F 55.2 °F 36% 29.91 in 10.0 mi SSW 21.9 mph 27.6 mph N/A   Clear
2:35 PM 86.4 °F 84.9 °F 55.9 °F 35% 29.90 in 10.0 mi South 19.6 mph 26.5 mph N/A   Clear
2:55 PM 86.9 °F 85.1 °F 54.7 °F 33% 29.90 in 10.0 mi South 18.4 mph 27.6 mph N/A   Clear
3:15 PM 86.7 °F 84.7 °F 53.6 °F 32% 29.89 in 10.0 mi South 18.4 mph 25.3 mph N/A   Clear
3:35 PM 86.9 °F 85.6 °F 57.0 °F 36% 29.89 in 10.0 mi SSE 19.6 mph 25.3 mph N/A   Clear
3:55 PM 86.5 °F 84.9 °F 55.4 °F 34% 29.89 in 10.0 mi South 13.8 mph 23.0 mph N/A   Clear
4:15 PM 87.3 °F 85.7 °F 55.8 °F 34% 29.89 in 10.0 mi South 18.4 mph 24.2 mph N/A   Clear
4:35 PM 86.4 °F 84.7 °F 54.7 °F 34% 29.89 in 10.0 mi South 16.1 mph 28.8 mph N/A   Clear
4:55 PM 86.5 °F 84.9 °F 54.9 °F 34% 29.89 in 10.0 mi South 17.3 mph 20.7 mph N/A   Clear
5:15 PM 86.2 °F 84.7 °F 55.2 °F 35% 29.89 in 10.0 mi South 18.4 mph 26.5 mph N/A   Clear
5:35 PM 85.8 °F 84.3 °F 54.9 °F 35% 29.89 in 10.0 mi SSW 13.8 mph 19.6 mph N/A   Clear
5:55 PM 85.3 °F 83.8 °F 55.0 °F 35% 29.89 in 10.0 mi South 13.8 mph 24.2 mph N/A   Clear
6:15 PM 84.7 °F 83.6 °F 55.4 °F 37% 29.90 in 10.0 mi South 12.7 mph 20.7 mph N/A   Clear
6:35 PM 84.2 °F 83.3 °F 56.5 °F 39% 29.89 in 10.0 mi South 16.1 mph 20.7 mph N/A   Clear
6:55 PM 83.3 °F 82.6 °F 56.5 °F 40% 29.89 in 10.0 mi South 10.4 mph 16.1 mph N/A   Clear
7:15 PM 82.4 °F 82.0 °F 56.8 °F 42% 29.90 in 10.0 mi South 9.2 mph - N/A   Clear
7:35 PM 81.3 °F 81.2 °F 56.7 °F 43% 29.90 in 10.0 mi South 10.4 mph 16.1 mph N/A   Clear
7:55 PM 80.6 °F 80.7 °F 56.7 °F 44% 29.90 in 10.0 mi South 9.2 mph - N/A   Clear
8:15 PM 79.7 °F - 56.8 °F 45% 29.90 in 10.0 mi South 10.4 mph - N/A   Clear
8:35 PM 79.0 °F - 57.2 °F 47% 29.91 in 10.0 mi South 10.4 mph 16.1 mph N/A   Clear
8:55 PM 78.6 °F - 57.0 °F 47% 29.92 in 10.0 mi South 9.2 mph 18.4 mph N/A   Clear
9:15 PM 77.9 °F - 56.8 °F 48% 29.92 in 10.0 mi South 10.4 mph 16.1 mph N/A   Clear
9:35 PM 77.2 °F - 57.4 °F 50% 29.93 in 10.0 mi South 9.2 mph - N/A   Clear
9:55 PM 76.5 °F - 58.3 °F 53% 29.93 in 10.0 mi South 9.2 mph - N/A   Clear
10:15 PM 76.1 °F - 58.8 °F 55% 29.94 in 10.0 mi South 10.4 mph 16.1 mph N/A   Clear
10:35 PM 75.9 °F - 58.8 °F 55% 29.93 in 10.0 mi South 10.4 mph 16.1 mph N/A   Clear
10:55 PM 75.7 °F - 58.6 °F 55% 29.94 in 10.0 mi South 11.5 mph - N/A   Clear
11:15 PM 75.2 °F - 59.0 °F 57% 29.94 in 10.0 mi South 9.2 mph - N/A   Clear
11:55 PM 73.9 °F - 59.0 °F 59% 29.94 in 10.0 mi South 12.7 mph - N/A   Clear